Time,TemperatureF,DewpointF,PressureIn,WindDirection,WindDirectionDegrees,WindSpeedMPH,WindSpeedGustMPH,Humidity,HourlyPrecipIn,Conditions,Clouds,dailyrainin,SoftwareType,DateUTC
2013-02-09 00:12:00,40.1,28.0,30.11,South,189,4.0,8.0,63,0.00,,,0.01,weatherlink.com 1.10,2013-02-09 05:12:00,
2013-02-09 00:27:00,39.8,28.0,30.11,SSW,197,0.0,5.0,63,0.00,,,0.01,weatherlink.com 1.10,2013-02-09 05:27:00,
2013-02-09 00:42:00,39.6,28.0,30.11,WNW,294,3.0,8.0,63,0.00,,,0.01,weatherlink.com 1.10,2013-02-09 05:42:00,
2013-02-09 00:57:00,40.1,28.0,30.11,West,277,3.0,12.0,62,0.00,,,0.00,weatherlink.com 1.10,2013-02-09 05:57:00,
2013-02-09 01:12:00,39.6,28.0,30.11,West,278,0.0,4.0,63,0.00,,,0.00,weatherlink.com 1.10,2013-02-09 06:12:00,
2013-02-09 01:27:00,38.6,28.0,30.11,WSW,238,0.0,2.0,67,0.00,,,0.00,weatherlink.com 1.10,2013-02-09 06:27:00,
2013-02-09 01:42:00,37.6,28.0,30.11,WSW,238,0.0,1.0,68,0.00,,,0.00,weatherlink.com 1.10,2013-02-09 06:42:00,
2013-02-09 01:57:00,36.7,28.0,30.11,WSW,238,0.0,0.0,70,0.00,,,0.00,weatherlink.com 1.10,2013-02-09 06:57:00,
2013-02-09 02:12:00,35.4,28.0,30.11,WSW,238,0.0,2.0,73,0.00,,,0.00,weatherlink.com 1.10,2013-02-09 07:12:00,
2013-02-09 02:27:00,35.0,28.0,30.12,WSW,238,0.0,1.0,74,0.00,,,0.00,weatherlink.com 1.10,2013-02-09 07:27:00,
2013-02-09 02:42:00,34.4,28.0,30.13,WSW,238,0.0,1.0,77,0.00,,,0.00,weatherlink.com 1.10,2013-02-09 07:42:00,
2013-02-09 02:57:00,33.8,27.0,30.14,WSW,238,0.0,0.0,77,0.00,,,0.00,weatherlink.com 1.10,2013-02-09 07:57:00,
2013-02-09 03:12:00,33.3,27.0,30.14,WSW,238,0.0,2.0,79,0.00,,,0.00,weatherlink.com 1.10,2013-02-09 08:12:00,
2013-02-09 03:27:00,32.4,28.0,30.14,WSW,238,0.0,1.0,82,0.00,,,0.00,weatherlink.com 1.10,2013-02-09 08:27:00,
2013-02-09 03:42:00,32.6,27.0,30.14,WSW,238,0.0,1.0,80,0.00,,,0.00,weatherlink.com 1.10,2013-02-09 08:42:00,
2013-02-09 03:57:00,32.9,27.0,30.15,WSW,238,0.0,1.0,80,0.00,,,0.00,weatherlink.com 1.10,2013-02-09 08:57:00,
2013-02-09 04:12:00,34.3,27.0,30.16,West,269,0.0,7.0,74,0.00,,,0.00,weatherlink.com 1.10,2013-02-09 09:12:00,
2013-02-09 04:27:00,34.6,26.0,30.15,WSW,247,0.0,6.0,72,0.00,,,0.00,weatherlink.com 1.10,2013-02-09 09:27:00,
2013-02-09 04:42:00,34.4,27.0,30.15,SSW,203,0.0,2.0,73,0.00,,,0.00,weatherlink.com 1.10,2013-02-09 09:42:00,
2013-02-09 04:57:00,33.7,27.0,30.16,SSW,203,0.0,1.0,75,0.00,,,0.00,weatherlink.com 1.10,2013-02-09 09:57:00,
2013-02-09 05:12:00,32.4,27.0,30.17,SSW,203,0.0,0.0,80,0.00,,,0.00,weatherlink.com 1.10,2013-02-09 10:12:00,
2013-02-09 05:27:00,31.8,26.0,30.17,SSW,203,0.0,1.0,79,0.00,,,0.00,weatherlink.com 1.10,2013-02-09 10:27:00,
2013-02-09 05:42:00,31.4,26.0,30.18,SSW,203,0.0,0.0,80,0.00,,,0.00,weatherlink.com 1.10,2013-02-09 10:42:00,
2013-02-09 05:57:00,30.8,25.0,30.18,SSW,203,0.0,0.0,80,0.00,,,0.00,weatherlink.com 1.10,2013-02-09 10:57:00,
2013-02-09 06:12:00,30.2,26.0,30.19,SSW,203,0.0,1.0,83,0.00,,,0.00,weatherlink.com 1.10,2013-02-09 11:12:00,
2013-02-09 06:27:00,29.1,25.0,30.20,SSW,203,0.0,1.0,84,0.00,,,0.00,weatherlink.com 1.10,2013-02-09 11:27:00,
2013-02-09 06:43:00,27.4,25.0,30.21,SSW,203,0.0,0.0,89,0.00,,,0.00,weatherlink.com 1.10,2013-02-09 11:43:00,
2013-02-09 06:58:00,27.6,25.0,30.22,SSW,203,0.0,0.0,88,0.00,,,0.00,weatherlink.com 1.10,2013-02-09 11:58:00,
2013-02-09 07:13:00,27.6,25.0,30.23,SSW,203,0.0,0.0,90,0.00,,,0.00,weatherlink.com 1.10,2013-02-09 12:13:00,
2013-02-09 07:28:00,27.6,24.0,30.24,SSW,203,0.0,0.0,87,0.00,,,0.00,weatherlink.com 1.10,2013-02-09 12:28:00,
2013-02-09 07:43:00,27.3,24.0,30.24,SSW,203,0.0,0.0,88,0.00,,,0.00,weatherlink.com 1.10,2013-02-09 12:43:00,
2013-02-09 07:58:00,27.4,25.0,30.25,SSW,203,0.0,0.0,91,0.00,,,0.00,weatherlink.com 1.10,2013-02-09 12:58:00,
2013-02-09 08:13:00,28.7,26.0,30.26,SSW,203,0.0,0.0,91,0.00,,,0.00,weatherlink.com 1.10,2013-02-09 13:13:00,
2013-02-09 08:28:00,30.1,26.0,30.27,SSW,203,0.0,1.0,86,0.00,,,0.00,weatherlink.com 1.10,2013-02-09 13:28:00,
2013-02-09 08:43:00,34.5,26.0,30.27,WNW,289,0.0,4.0,71,0.00,,,0.00,weatherlink.com 1.10,2013-02-09 13:43:00,
2013-02-09 08:58:00,36.9,26.0,30.27,WNW,303,1.0,4.0,64,0.00,,,0.00,weatherlink.com 1.10,2013-02-09 13:58:00,
2013-02-09 09:13:00,38.1,26.0,30.27,WNW,299,4.0,6.0,61,0.00,,,0.00,weatherlink.com 1.10,2013-02-09 14:13:00,
2013-02-09 09:28:00,39.5,25.0,30.28,SW,233,3.0,10.0,56,0.00,,,0.00,weatherlink.com 1.10,2013-02-09 14:28:00,
2013-02-09 09:43:00,40.9,25.0,30.28,SSW,211,3.0,8.0,54,0.00,,,0.00,weatherlink.com 1.10,2013-02-09 14:43:00,
2013-02-09 09:58:00,42.4,26.0,30.29,WSW,254,2.0,4.0,52,0.00,,,0.00,weatherlink.com 1.10,2013-02-09 14:58:00,
2013-02-09 10:13:00,43.5,25.0,30.30,WSW,241,2.0,6.0,49,0.00,,,0.00,weatherlink.com 1.10,2013-02-09 15:13:00,
2013-02-09 10:28:00,45.3,26.0,30.30,WNW,294,2.0,4.0,47,0.00,,,0.00,weatherlink.com 1.10,2013-02-09 15:28:00,
2013-02-09 10:43:00,46.5,25.0,30.29,SW,222,0.0,4.0,44,0.00,,,0.00,weatherlink.com 1.10,2013-02-09 15:43:00,
2013-02-09 10:58:00,48.5,25.0,30.30,West,264,2.0,5.0,40,0.00,,,0.00,weatherlink.com 1.10,2013-02-09 15:58:00,
2013-02-09 11:13:00,48.6,24.0,30.30,WNW,284,4.0,6.0,39,0.00,,,0.00,weatherlink.com 1.10,2013-02-09 16:13:00,
2013-02-09 11:28:00,49.4,25.0,30.30,North,350,3.0,4.0,38,0.00,,,0.00,weatherlink.com 1.10,2013-02-09 16:28:00,
2013-02-09 11:43:00,49.8,24.0,30.30,NW,304,1.0,5.0,36,0.00,,,0.00,weatherlink.com 1.10,2013-02-09 16:43:00,
2013-02-09 11:58:00,50.6,24.0,30.29,SSW,204,2.0,8.0,36,0.00,,,0.00,weatherlink.com 1.10,2013-02-09 16:58:00,
2013-02-09 12:13:00,51.3,24.0,30.30,NW,304,1.0,3.0,35,0.00,,,0.00,weatherlink.com 1.10,2013-02-09 17:13:00,
2013-02-09 12:28:00,51.8,25.0,30.30,West,268,4.0,5.0,35,0.00,,,0.00,weatherlink.com 1.10,2013-02-09 17:28:00,
2013-02-09 12:44:00,52.5,25.0,30.29,SSW,202,0.0,4.0,35,0.00,,,0.00,weatherlink.com 1.10,2013-02-09 17:44:00,
2013-02-09 12:59:00,52.9,24.0,30.29,NW,314,0.0,5.0,33,0.00,,,0.00,weatherlink.com 1.10,2013-02-09 17:59:00,
2013-02-09 13:14:00,53.9,24.0,30.28,ENE,75,0.0,3.0,32,0.00,,,0.00,weatherlink.com 1.10,2013-02-09 18:14:00,
2013-02-09 13:29:00,54.2,23.0,30.27,ESE,102,1.0,6.0,30,0.00,,,0.00,weatherlink.com 1.10,2013-02-09 18:29:00,
2013-02-09 13:44:00,54.3,24.0,30.27,ESE,105,0.0,4.0,31,0.00,,,0.00,weatherlink.com 1.10,2013-02-09 18:44:00,
2013-02-09 13:59:00,55.5,24.0,30.27,WSW,258,2.0,5.0,30,0.00,,,0.00,weatherlink.com 1.10,2013-02-09 18:59:00,
2013-02-09 14:14:00,55.3,23.0,30.26,WSW,256,4.0,5.0,28,0.00,,,0.00,weatherlink.com 1.10,2013-02-09 19:14:00,
2013-02-09 14:29:00,56.1,23.0,30.26,NNE,20,1.0,3.0,28,0.00,,,0.00,weatherlink.com 1.10,2013-02-09 19:29:00,
2013-02-09 14:44:00,56.0,24.0,30.25,WNW,301,4.0,7.0,29,0.00,,,0.00,weatherlink.com 1.10,2013-02-09 19:44:00,
2013-02-09 14:59:00,56.6,23.0,30.25,ENE,73,0.0,3.0,27,0.00,,,0.00,weatherlink.com 1.10,2013-02-09 19:59:00,
2013-02-09 15:14:00,57.0,20.0,30.25,SW,228,0.0,4.0,24,0.00,,,0.00,weatherlink.com 1.10,2013-02-09 20:14:00,
2013-02-09 15:29:00,57.3,22.0,30.24,ESE,123,0.0,3.0,25,0.00,,,0.00,weatherlink.com 1.10,2013-02-09 20:29:00,
2013-02-09 15:44:00,57.6,22.0,30.24,NW,323,0.0,4.0,25,0.00,,,0.00,weatherlink.com 1.10,2013-02-09 20:44:00,
2013-02-09 15:59:00,58.0,23.0,30.24,ESE,118,1.0,2.0,26,0.00,,,0.00,weatherlink.com 1.10,2013-02-09 20:59:00,
2013-02-09 16:14:00,57.7,22.0,30.23,ENE,74,0.0,4.0,25,0.00,,,0.00,weatherlink.com 1.10,2013-02-09 21:14:00,
2013-02-09 16:29:00,57.8,22.0,30.24,NNW,332,0.0,3.0,25,0.00,,,0.00,weatherlink.com 1.10,2013-02-09 21:29:00,
2013-02-09 16:44:00,57.0,22.0,30.24,NNW,333,0.0,2.0,26,0.00,,,0.00,weatherlink.com 1.10,2013-02-09 21:44:00,
2013-02-09 16:59:00,56.9,23.0,30.24,NNE,21,1.0,4.0,27,0.00,,,0.00,weatherlink.com 1.10,2013-02-09 21:59:00,
2013-02-09 17:14:00,56.5,23.0,30.25,ENE,59,0.0,3.0,27,0.00,,,0.00,weatherlink.com 1.10,2013-02-09 22:14:00,
2013-02-09 17:29:00,56.0,22.0,30.25,ENE,59,0.0,2.0,27,0.00,,,0.00,weatherlink.com 1.10,2013-02-09 22:29:00,
2013-02-09 17:44:00,55.2,22.0,30.25,ENE,59,0.0,2.0,28,0.00,,,0.00,weatherlink.com 1.10,2013-02-09 22:44:00,
2013-02-09 17:59:00,53.9,22.0,30.25,ENE,59,0.0,0.0,29,0.00,,,0.00,weatherlink.com 1.10,2013-02-09 22:59:00,
2013-02-09 18:14:00,52.9,22.0,30.26,ENE,59,0.0,0.0,30,0.00,,,0.00,weatherlink.com 1.10,2013-02-09 23:14:00,
2013-02-09 18:29:00,51.5,22.0,30.26,ENE,59,0.0,0.0,32,0.00,,,0.00,weatherlink.com 1.10,2013-02-09 23:29:00,
2013-02-09 18:44:00,50.1,23.0,30.27,ENE,59,0.0,0.0,34,0.00,,,0.00,weatherlink.com 1.10,2013-02-09 23:44:00,
2013-02-09 18:59:00,49.2,22.0,30.27,ENE,59,0.0,0.0,34,0.00,,,0.00,weatherlink.com 1.10,2013-02-09 23:59:00,
2013-02-09 19:14:00,48.1,22.0,30.28,ENE,59,0.0,0.0,36,0.00,,,0.00,weatherlink.com 1.10,2013-02-10 00:14:00,
2013-02-09 19:29:00,46.7,22.0,30.28,ENE,59,0.0,0.0,38,0.00,,,0.00,weatherlink.com 1.10,2013-02-10 00:29:00,
2013-02-09 19:44:00,44.9,26.0,30.29,ENE,59,0.0,0.0,47,0.00,,,0.00,weatherlink.com 1.10,2013-02-10 00:44:00,
2013-02-09 19:59:00,44.3,26.0,30.29,ENE,59,0.0,2.0,48,0.00,,,0.00,weatherlink.com 1.10,2013-02-10 00:59:00,
2013-02-09 20:14:00,44.3,23.0,30.30,ENE,59,0.0,1.0,44,0.00,,,0.00,weatherlink.com 1.10,2013-02-10 01:14:00,
2013-02-09 20:29:00,44.5,24.0,30.30,ENE,59,0.0,2.0,44,0.00,,,0.00,weatherlink.com 1.10,2013-02-10 01:29:00,
2013-02-09 20:44:00,44.6,25.0,30.31,ENE,59,0.0,1.0,47,0.00,,,0.00,weatherlink.com 1.10,2013-02-10 01:44:00,
2013-02-09 20:59:00,44.5,23.0,30.31,ENE,59,0.0,1.0,43,0.00,,,0.00,weatherlink.com 1.10,2013-02-10 01:59:00,
2013-02-09 21:14:00,43.9,24.0,30.32,ENE,59,0.0,0.0,46,0.00,,,0.00,weatherlink.com 1.10,2013-02-10 02:14:00,
2013-02-09 21:29:00,42.3,25.0,30.32,ENE,59,0.0,0.0,50,0.00,,,0.00,weatherlink.com 1.10,2013-02-10 02:29:00,
2013-02-09 21:44:00,41.9,24.0,30.33,ENE,59,0.0,0.0,49,0.00,,,0.00,weatherlink.com 1.10,2013-02-10 02:44:00,
2013-02-09 21:59:00,41.8,25.0,30.33,ENE,59,0.0,0.0,51,0.00,,,0.00,weatherlink.com 1.10,2013-02-10 02:59:00,
2013-02-09 22:14:00,40.7,25.0,30.32,ENE,59,0.0,0.0,53,0.00,,,0.00,weatherlink.com 1.10,2013-02-10 03:14:00,
2013-02-09 22:29:00,39.4,25.0,30.32,ENE,59,0.0,0.0,56,0.00,,,0.00,weatherlink.com 1.10,2013-02-10 03:29:00,
2013-02-09 22:44:00,39.0,25.0,30.32,ENE,59,0.0,1.0,58,0.00,,,0.00,weatherlink.com 1.10,2013-02-10 03:44:00,
2013-02-09 22:59:00,38.0,26.0,30.32,ENE,59,0.0,0.0,62,0.00,,,0.00,weatherlink.com 1.10,2013-02-10 03:59:00,
2013-02-09 23:14:00,37.1,27.0,30.32,ENE,59,0.0,0.0,67,0.00,,,0.00,weatherlink.com 1.10,2013-02-10 04:14:00,
2013-02-09 23:29:00,36.3,28.0,30.33,ENE,59,0.0,0.0,71,0.00,,,0.00,weatherlink.com 1.10,2013-02-10 04:29:00,
2013-02-09 23:44:00,35.9,28.0,30.33,ENE,59,0.0,0.0,73,0.00,,,0.00,weatherlink.com 1.10,2013-02-10 04:44:00,
2013-02-09 23:59:00,35.8,29.0,30.33,ENE,59,0.0,0.0,75,0.00,,,0.00,weatherlink.com 1.10,2013-02-10 04:59:00,